Find Starlink 31613

NORAD ID: 59431 Int'l Des: 2024-065 Owner: SPXS Country: US Constellation: starlink operational
LEOCIRCULAR

当前视图

正在加载3D地球...

About Starlink 31613

Starlink 31613 (NORAD 59431) is a starlink constellation satellite (v2 mini) launched Apr 7, 2024 by SPXS of US. It operates in LEO, CIRCULAR orbit with a mass of 730.00 kg.

即将过境

Passes for default location (London). Set your location on the main map for personalized predictions.

高度历史

Loading altitude history...

两行轨道根数

1 59431U 24065L 26265.91842444 .00000317 00000-0 20530-4 0 9991
2 59431 53.1609 82.1905 0001174 94.5596 265.5541 15.34393297139179
Epoch: Sep 22, 2026 • Age: 17 hours

当前状态

高度 467.5 km
远地点 / 近地点 N/A
速度 7.64 km/s
星下点 48.53°N, 99.33°W
发射日期 Apr 7, 2024
运行时间 2.4 years
类型 internet

技术详情

分类 Payload
质量 730.00 kg
干质量 700.00 kg
长度 0.30 m
跨度 29.00 m
形状 ? Box + pan
制造商 SPXS
平台类型 Starlink V2M
阶段状态 In Orbit
所有者/国家 SPXS/US

Most Searched